Regional Weather Roundup
Issued by NWS Jackson, KY

Home | Current Version | Previous Version | Graphics & Text | Print | Product List | Glossary On
Versions: 1 2 3 4 5 6 7 8 9 10 11 12 13 14 15 16 17 18 19 20 21 22 23 24 25 26 27 28 29 30 31 32 33 34 35 36 37 38 39 40 41 42 43 44 45 46 47 48 49 50
000
ASUS43 KJKL 301810
RWRJKL

EAST KENTUCKY HOURLY WEATHER ROUNDUP
NATIONAL WEATHER SERVICE JACKSON KY
200 PM EDT THU JUL 30 2015

NOTE: "FAIR" INDICATES FEW OR NO CLOUDS BELOW 12,000 FEET WITH
NO SIGNIFICANT WEATHER AND/OR OBSTRUCTIONS TO VISIBILITY.

* THESE REPORTS ARE NOT UNDER NWS QUALITY CONTROL AND MAY NOT
  REPORT WEATHER SUCH AS PRECIPITATION AND FOG.

KYZ079-080-083-085-087-088-110-112-115-119-120-301900
...EASTERN KENTUCKY...

CITY           SKY/WX    TMP DP  RH WIND       PRES   REMARKS
JACKSON        MOSUNNY   81  61  50 VRB7      30.09F
6HR MIN TEMP:  72; 6HR MAX TEMP:  83;

LONDON         PTSUNNY   86  63  45 N7        30.09S
6HR MIN TEMP:  74; 6HR MAX TEMP:  86;

SOMERSET*      SUNNY     81  64  57 N7        30.10S
MONTICELLO*    SUNNY     85  69  58 CALM      30.12F
6HR MIN TEMP:  74; 6HR MAX TEMP:  85;

MIDDLESBORO*   MOSUNNY   84  71  64 N7        30.09S
6HR MIN TEMP:  75; 6HR MAX TEMP:  84;

HAZARD APT*    PTCLDY    84  66  54 N3        30.08F
BLACK MTN*       N/A     75  68  78 W3          N/A
PIKEVILLE APT* MOSUNNY   81  68  65 NW6       30.08F
BIG SANDY*     PTCLDY    84  66  54 N3        30.07F
6HR MIN TEMP:  73; 6HR MAX TEMP:  85;

MOREHEAD APT*  PTCLDY    82  61  47 NW8       30.10S
$$

KYZ035-036-041-042-044-050-067-078-099-301900
...CENTRAL KENTUCKY...

CITY           SKY/WX    TMP DP  RH WIND       PRES   REMARKS
MT STERLING*   SUNNY     82  63  51 N3        30.10S
FLEMING/MASON* SUNNY     82  61  47 W8        30.09S
DANVILLE*      SUNNY     82  63  51 N7        30.12S
RICHMOND*      SUNNY     82  61  47 N6        30.09F
LEXINGTON      SUNNY     83  62  49 NW6       30.10S
6HR MIN TEMP:  70; 6HR MAX TEMP:  83;

FRANKFORT      SUNNY     83  54  36 NW8       30.09F
6HR MIN TEMP:  69; 6HR MAX TEMP:  84;

$$

KYZ091>093-OHZ055-061-077-WVZ005-015-034-035-042-301900
...SOUTHERN OHIO/WEST VIRGINIA...

CITY           SKY/WX    TMP DP  RH WIND       PRES   REMARKS
COVINGTON      MOSUNNY   84  56  37 NW9       30.08F
COLUMBUS       MOSUNNY   84  57  39 VRB7      30.02F
DAYTON         MOSUNNY   81  59  47 W8        30.08F
WILMINGTON     SUNNY     82  58  43 W9        30.06F
HUNTINGTON     PTSUNNY   84  61  45 W7        30.04S
CHARLESTON     MOSUNNY   85  65  51 VRB5      30.03S
PINEVILLE*     PTSUNNY   82  74  76 MISG      30.12S
BECKLEY        MOSUNNY   82  71  69 NW10      30.09F
BLUEFIELD      MOSUNNY   83  68  60 W8        30.12F
$$

VAZ002-007-008-TNZ017-027-036-066-071-301900
...SOUTHWEST VIRGINIA/EAST TENNESSEE...

CITY           SKY/WX    TMP DP  RH WIND       PRES   REMARKS
WISE*          CLOUDY    79  73  83 N7        30.16S
ABINGDON*      MOSUNNY   85  69  58 N6        30.09F
BRISTOL        MOSUNNY   88  71  57 VRB5      30.06S HX  94
KNOXVILLE      PTSUNNY   87  72  60 NE5       30.04F HX  93
OAK RIDGE      CLOUDY    88  72  58 CALM      30.06F HX  94
CROSSVILLE     MOSUNNY   83  69  62 VRB6      30.13F
NASHVILLE      MOSUNNY   88  60  38 N8        30.10F
$$

...KEY TO REMARKS...
VSB - VISIBILITY IN MILES
WCI - WIND CHILL INDEX
HX  - HEAT INDEX

$$


USA.gov is the U.S. government's official web portal to all federal, state and local government web resources and services.